Regional Weather Roundup
Issued by NWS State College, PA

Home | Current Version | Previous Version | Text Only | Print | Product List | Glossary On
Versions: 1 2 3 4 5 6 7 8 9 10 11 12 13 14 15 16 17 18 19 20 21 22 23 24 25 26 27 28 29 30 31 32 33 34 35 36 37 38 39 40 41 42 43 44 45 46 47 48 49 50
000
ASUS41 KCTP 240103
RWRCTP

REGIONAL WEATHER ROUNDUP
NATIONAL WEATHER SERVICE STATE COLLEGE PA
900 PM EDT FRI JUN 23 2017

Note: "fair" indicates few or no clouds below 12,000 feet with no
significant weather and/or obstructions to visibility.

* = STATION THAT DOES NOT REPORT PRECIPITATION /E.G. RAIN...SNOW...ETC/
    THUNDER OR FOG.

PAZ002>004-007>009-013>016-020>023-029>032-240200-
WESTERN PENNSYLVANIA

CITY           SKY/WX    TMP DP  RH WIND       PRES   REMARKS
ERIE           CLOUDY    73  67  81 SW12      29.62S
MEADVILLE      CLOUDY    70  69  97 SW6       29.67S
FRANKLIN*      CLOUDY    68  64  88 SW8       29.70R
NEW CASTLE     LGT RAIN  69  67  93 SW6       29.71R
BEAVER COUNTY  LGT RAIN  66  66 100 SW3       29.72R
BUTLER*        CLOUDY    68  64  88 SW5       29.72R
PITTSBURGH INT LGT RAIN  69  68  96 SW3       29.71R
PITTSBURGH     LGT RAIN  68  65  90 SW5       29.72R
INDIANA*       MOCLDY    68  68 100 W7        29.75R
LATROBE        LGT RAIN  68  68 100 SW3       29.73R
WASHINGTON CO* CLOUDY    68  66  94 CALM      29.74S
$$

PAZ004>006-010>012-017>019-024>028-033>037-041-042-045-046-049>053-240200-
CENTRAL PENNSYLVANIA

CITY           SKY/WX    TMP DP  RH WIND       PRES   REMARKS
BRADFORD       MOCLDY    68  67  96 VRB6      29.69R
DUBOIS         CLOUDY    68  65  90 SW8       29.70S
CLEARFIELD     CLOUDY    71  69  93 SW8       29.70R
JOHNSTOWN      RAIN      67  66  97 SW10      29.75R
ALTOONA        LGT RAIN  69  68  96 S13       29.72R
STATE COLLEGE  NOT AVBL
WILLIAMSPORT   LGT RAIN  78  70  76 SW9       29.63R
SELINSGROVE    LGT RAIN  74  73  97 CALM      29.65R
FT INDIANTOWN  MOCLDY    75  75 100 SW9       29.66S
CAPITAL CITY   MOCLDY    76  72  87 W3        29.67R
HARRISBURG     CLOUDY    76  72  87 SW15      29.66R
YORK           PTCLDY    73  71  93 CALM      29.68S
$$

PAZ038>040-043-044-047-048-054-055-060>062-067>071-240200-
EASTERN PENNSYLVANIA

CITY           SKY/WX    TMP DP  RH WIND       PRES   REMARKS
SCRANTON       LGT RAIN  78  70  76 SW10G20   29.63S
MOUNT POCONO   LGT RAIN  72  72 100 SW5       29.70R
ALLENTOWN      RAIN      75  71  87 NW8       29.66R FOG
QUAKERTOWN*    MOCLDY    75  75 100 SW3       29.67S
READING        LGT RAIN  78  75  90 SW7       29.65R
LANCASTER      LGT RAIN  78  74  87 W12G17    29.68R
COATESVILLE    PTCLDY    79  73  83 VRB5G13   29.70R
POTTSTOWN      CLOUDY    79  73  82 S5        29.68R
BLUE BELL      MOCLDY    79  72  78 SW8       29.69R
DOYLESTOWN     PTCLDY    77  73  87 S7        29.66S
WILLOW GROVE   NOT AVBL
NORTH PHILA    PTCLDY    84  73  69 SW13G20   29.68R
PHILADELPHIA   CLOUDY    84  72  67 SW15G26   29.67S
$$




USA.gov is the U.S. government's official web portal to all federal, state and local government web resources and services.